Syracuse, NY

2:11 AM EDT on October 01, 2016 (GMT -0400)
Syracuse Hancock International

Weather History for KSYR - June, 2013

Change the Weather History Date:

Monday, June 24, 2013

  Actual Average Record
Temperature  
Mean Temperature 80 °F 69 °F  
Max Temperature 91 °F 80 °F 93 °F (1949)
Min Temperature 68 °F 59 °F 45 °F (1988)
Degree Days  
Heating Degree Days 0 1  
Month to date heating degree days 61 55  
Since 1 June heating degree days 61 55  
Since 1 July heating degree days 6147 6645  
Cooling Degree Days 15 5  
Month to date cooling degree days 71 80  
Year to date cooling degree days 123 110  
Since 1 June cooling degree days 71 80  
Growing Degree Days 30 (Base 50)    
Moisture  
Dew Point 67 °F    
Average Humidity 73    
Maximum Humidity 90    
Minimum Humidity 55    
Precipitation  
Precipitation 0.00 in 0.11 in 0.97 in (1992)
Month to date precipitation 4.89 2.63  
Year to date precipitation 18.83 16.56  
Snow  
Snow 0.00 in 0.00 in T in (1992)
Month to date snowfall 0.0 0.0  
Since 1 June snowfall 0.0 0.0  
Since 1 July snowfall 115.4 123.8  
Snow Depth 0.00 in    
Sea Level Pressure  
Sea Level Pressure 29.97 in    
Wind  
Wind Speed 7 mph (SW)    
Max Wind Speed 10 mph    
Max Gust Speed 14 mph    
Visibility 10 miles    
Events Thunderstorm    
T = Trace of Precipitation, MM = Missing Value Source: NWS Daily Summary

Daily Weather History Graph

Daily Weather History Graph

Search for Another Location

Airport or City:

Trip Planner

Search our weather history database for the weather conditions in past years. The results will help you decide how hot, cold, wet, or windy it might be!

Date:

Astronomy

Jun. 24, 2013 Rise Set
Actual Time 5:25 AM EDT 8:47 PM EDT
Civil Twilight 4:50 AM EDT 9:23 PM EDT
Nautical Twilight 4:04 AM EDT 10:09 PM EDT
Astronomical Twilight 3:06 AM EDT 11:06 PM EDT
Moon 9:44 PM EDT (6/24) 6:53 AM EDT (6/24)
Length of Visible Light 16h 33m
Length of Day
15h 22m
Full, 98% of the Moon is Illuminated
Jun 24
Full
Jun 30
Last Quarter
Jul 8
New
Jul 15
First Quarter
Jul 22
Full

Hourly Weather History & Observations

Time (EDT) Temp. Heat Index Dew Point Humidity Pressure Visibility Wind Dir Wind Speed Gust Speed Precip Events Conditions
12:54 AM 73.9 °F - 66.0 °F 76% 30.00 in 10.0 mi SSW 10.4 mph - N/A   Mostly Cloudy
1:54 AM 73.9 °F - 66.0 °F 76% 30.00 in 10.0 mi SSW 4.6 mph - N/A   Overcast
2:54 AM 73.0 °F - 66.0 °F 79% 29.99 in 10.0 mi SW 4.6 mph - N/A   Mostly Cloudy
3:54 AM 73.9 °F - 64.9 °F 73% 29.99 in 10.0 mi SW 6.9 mph - N/A   Mostly Cloudy
4:54 AM 69.1 °F - 64.9 °F 87% 30.01 in 9.0 mi Calm Calm - N/A   Mostly Cloudy
5:54 AM 69.1 °F - 66.0 °F 90% 30.01 in 7.0 mi East 3.5 mph - N/A   Mostly Cloudy
6:54 AM 72.0 °F - 66.9 °F 84% 30.02 in 8.0 mi Calm Calm - N/A   Mostly Cloudy
7:54 AM 79.0 °F - 68.0 °F 69% 30.01 in 10.0 mi WSW 4.6 mph - N/A   Overcast
8:54 AM 80.1 °F 82.7 °F 68.0 °F 67% 30.01 in 10.0 mi WSW 8.1 mph - N/A   Mostly Cloudy
9:54 AM 82.9 °F 86.5 °F 69.1 °F 63% 30.01 in 10.0 mi WSW 8.1 mph - N/A   Scattered Clouds
10:54 AM 84.9 °F 89.4 °F 70.0 °F 61% 30.01 in 10.0 mi West 9.2 mph - N/A   Mostly Cloudy
11:54 AM 87.1 °F 92.0 °F 70.0 °F 57% 30.00 in 9.0 mi West 10.4 mph - N/A   Mostly Cloudy
12:54 PM 87.1 °F 92.0 °F 70.0 °F 57% 30.00 in 10.0 mi West 10.4 mph - N/A   Mostly Cloudy
1:54 PM 89.1 °F 95.0 °F 71.1 °F 55% 29.97 in 10.0 mi WSW 11.5 mph - N/A   Scattered Clouds
2:54 PM 88.0 °F 92.9 °F 70.0 °F 55% 29.93 in 10.0 mi WSW 12.7 mph 19.6 mph N/A   Mostly Cloudy
3:07 PM 86.0 °F 88.2 °F 66.2 °F 51% 29.98 in 10.0 mi NW 27.6 mph 39.1 mph N/A Thunderstorm Thunderstorm
3:12 PM 80.6 °F 81.1 °F 59.0 °F 48% 29.97 in 10.0 mi NW 24.2 mph 39.1 mph N/A Thunderstorm Thunderstorm
3:54 PM 75.0 °F - 63.0 °F 66% 29.94 in 10.0 mi NW 4.6 mph - N/A   Overcast
4:54 PM 77.0 °F - 64.0 °F 64% 29.94 in 10.0 mi South 5.8 mph - N/A   Overcast
5:54 PM 79.0 °F - 66.9 °F 66% 29.94 in 10.0 mi SE 10.4 mph - N/A   Overcast
6:54 PM 80.1 °F 82.9 °F 69.1 °F 69% 29.93 in 10.0 mi SE 6.9 mph - N/A   Mostly Cloudy
7:54 PM 80.1 °F 82.7 °F 68.0 °F 67% 29.92 in 10.0 mi SSE 6.9 mph - N/A   Mostly Cloudy
8:54 PM 77.0 °F - 68.0 °F 74% 29.93 in 10.0 mi SE 6.9 mph - N/A   Mostly Cloudy
9:54 PM 75.9 °F - 66.9 °F 74% 29.94 in 10.0 mi SSW 10.4 mph - N/A   Mostly Cloudy
10:54 PM 75.0 °F - 64.0 °F 69% 29.94 in 10.0 mi SSW 9.2 mph - N/A   Mostly Cloudy
11:54 PM 73.0 °F - 63.0 °F 71% 29.94 in 10.0 mi Calm Calm - N/A   Scattered Clouds